Terminal Aerodrome Forecast
Issued by NWS Binghamton, NY

Home | Current Version | Previous Version | Text Only | Print | Product List | Glossary On
Versions: 1 2 3 4 5 6 7 8 9 10 11 12 13 14 15 16
000
FTUS41 KBGM 300528
TAFSYR
TAF
KSYR 300528Z 3006/3106 19005KT P6SM SCT100 BKN200
     FM301000 22008KT P6SM OVC100
      TEMPO 3012/3015 -SHRA OVC040
     FM301500 27010KT P6SM BKN060
     FM302000 28011G17KT P6SM FEW070=

USA.gov is the U.S. government's official web portal to all federal, state and local government web resources and services.